CW0262 Weather Reports


Display with metric or nautical units.
time (UTC)temp
F
wind
direction
speed
MPH
gust
MPH
rain 1hr
in
rain 24hr
in
rain mn
in
humidity
%
barometer
mb
20260505050704 73 89 5.0 8.0 0.00 0.39 0.00 90 1015.2
20260505050204 73 107 5.0 9.0 0.00 0.39 0.00 90 1015.2
20260505041704 73 88 5.0 6.0 0.00 0.39 0.00 90 1015.2
20260505040703 73 93 5.0 8.0 0.00 0.39 0.00 90 1015.2
20260505034703 73 82 5.0 8.0 0.00 0.39 0.39 89 1015.2
20260505034205 73 86 5.0 8.0 0.00 0.39 0.39 89 1015.2
20260505033704 73 92 5.0 8.0 0.00 0.39 0.39 89 1015.2
20260505033203 73 103 7.0 8.0 0.00 0.39 0.39 89 1015.2
20260505031704 73 82 4.0 6.0 0.00 0.39 0.39 88 1015.2
20260505031203 73 82 5.0 6.0 0.00 0.39 0.39 87 1015.2
20260505030704 73 95 5.0 9.0 0.00 0.39 0.39 86 1015.2
20260505030204 73 99 5.0 8.0 0.00 0.39 0.39 86 1015.2
20260505024704 74 103 6.0 9.0 0.00 0.39 0.39 87 1015.2
20260505024204 74 89 4.0 8.0 0.00 0.39 0.39 88 1015.2
20260505023704 74 95 6.0 8.0 0.00 0.39 0.39 88 1015.2
20260505023204 74 105 5.0 9.0 0.00 0.39 0.39 88 1015.2
20260505021704 74 97 6.0 12.0 0.00 0.39 0.39 87 1015.2
20260505021205 74 104 5.0 8.0 0.00 0.39 0.39 86 1015.2
20260505020703 74 103 5.0 8.0 0.00 0.39 0.39 86 1015.2
20260505020205 74 90 5.0 9.0 0.00 0.39 0.39 86 1015.2
20260505014704 74 97 6.0 9.0 0.00 0.39 0.39 85 1015.2
20260505014204 74 101 6.0 8.0 0.00 0.39 0.39 86 1015.2
20260505013704 74 96 5.0 8.0 0.00 0.39 0.39 87 1015.2
20260505013204 74 86 5.0 9.0 0.00 0.39 0.39 86 1015.2
20260505011704 74 107 5.0 9.0 0.00 0.39 0.39 84 1015.2
20260505011203 74 104 6.0 8.0 0.00 0.39 0.39 84 1014.5
20260505010704 75 97 5.0 9.0 0.00 0.39 0.39 83 1014.2
20260505010205 75 108 7.0 12.0 0.00 0.39 0.39 82 1014.2
20260505004705 75 107 7.0 8.0 0.00 0.39 0.39 84 1014.2
20260505003703 75 102 6.0 8.0 0.00 0.39 0.39 85 1014.2
20260505001704 74 93 6.0 9.0 0.00 0.39 0.39 84 1014.2
20260505001204 75 102 7.0 10.0 0.00 0.39 0.39 83 1014.2
20260505000703 75 106 7.0 10.0 0.00 0.39 0.39 83 1014.2
20260505000204 75 99 6.0 10.0 0.00 0.39 0.39 83 1014.2
20260504234704 75 93 7.0 12.0 0.00 0.39 0.39 83 1014.2
20260504234203 75 101 7.0 9.0 0.00 0.39 0.39 83 1014.2
20260504233705 75 98 8.0 10.0 0.00 0.39 0.39 82 1014.2
20260504233205 76 79 7.0 12.0 0.00 0.39 0.39 82 1014.2
20260504231704 76 116 9.0 14.0 0.00 0.39 0.39 79 1014.2
20260504230204 77 79 8.0 13.0 0.00 0.39 0.39 78 1014.2
20260504224705 76 84 7.0 13.0 0.00 0.39 0.39 81 1014.2
20260504224204 77 99 9.0 13.0 0.00 0.39 0.39 80 1014.2
20260504223205 77 101 8.0 13.0 0.00 0.39 0.39 79 1014.2
20260504221704 77 87 7.0 13.0 0.00 0.39 0.39 79 1013.2
20260504221204 77 104 9.0 13.0 0.00 0.39 0.39 78 1014.0
20260504220704 77 100 9.0 12.0 0.00 0.39 0.39 78 1014.2
20260504220203 78 106 8.0 14.0 0.00 0.39 0.39 78 1014.2
20260504214704 77 111 6.0 9.0 0.00 0.39 0.39 79 1014.2
20260504214204 77 93 10.0 13.0 0.00 0.39 0.39 79 1014.2
20260504213705 77 97 7.0 9.0 0.00 0.39 0.39 80 1014.2
20260504213204 77 84 9.0 13.0 0.00 0.39 0.39 79 1014.2
20260504211703 77 99 10.0 17.0 0.00 0.39 0.39 78 1014.2
20260504211203 77 109 10.0 13.0 0.00 0.39 0.39 78 1014.2
20260504210704 78 100 7.0 13.0 0.00 0.39 0.39 77 1014.2
20260504204206 79 99 9.0 15.0 0.00 0.39 0.39 76 1014.2
20260504203705 78 111 10.0 13.0 0.00 0.39 0.39 77 1014.2
20260504203204 79 97 11.0 15.0 0.00 0.39 0.39 77 1014.2
20260504201705 80 96 8.0 13.0 0.00 0.39 0.39 76 1014.2
20260504201205 80 107 9.0 16.0 0.00 0.43 0.39 76 1014.2
20260504200704 80 88 10.0 15.0 0.00 0.47 0.39 74 1014.2
20260504200205 80 94 11.0 16.0 0.00 0.51 0.39 73 1014.2
20260504194704 80 89 9.0 13.0 0.00 0.55 0.39 76 1014.2
20260504193704 79 71 9.0 13.0 0.00 0.55 0.39 77 1015.2
20260504193203 79 112 9.0 16.0 0.00 0.63 0.39 78 1015.2
20260504190204 79 83 11.0 15.0 0.00 1.18 0.39 77 1015.2
20260504184704 79 79 10.0 13.0 0.00 1.22 0.39 83 1015.2
20260504184204 78 75 11.0 17.0 0.00 1.22 0.39 85 1015.2
20260504183704 77 78 10.0 15.0 0.00 1.22 0.39 83 1015.2
20260504183204 78 76 10.0 17.0 0.00 1.22 0.39 82 1015.2
20260504181705 80 88 11.0 15.0 0.00 1.22 0.39 75 1015.2
20260504181204 81 97 9.0 15.0 0.00 1.22 0.39 78 1015.2
20260504180705 80 92 10.0 15.0 0.00 1.22 0.39 77 1015.2
20260504180204 80 83 10.0 17.0 0.00 1.22 0.39 77 1015.2
20260504174705 80 76 10.0 13.0 0.00 1.22 0.39 76 1016.2
20260504174205 80 73 11.0 15.0 0.00 1.22 0.39 77 1016.2
20260504173704 80 72 9.0 13.0 0.00 1.22 0.39 76 1016.2
20260504173205 80 85 12.0 17.0 0.00 1.22 0.39 76 1016.2
20260504171204 78 74 10.0 15.0 0.00 1.22 0.39 81 1016.2
20260504170704 78 87 12.0 15.0 0.00 1.22 0.39 81 1016.2
20260504150704 75 61 10.0 12.0 0.04 1.18 0.35 92 1016.2
20260504150204 74 39 7.0 15.0 0.16 1.18 0.35 92 1016.2
20260504141204 71 67 6.0 8.0 0.20 1.14 0.31 100 1015.4
20260504140704 71 32 5.0 8.0 0.20 1.14 0.31 100 1015.2
20260504140204 73 31 6.0 15.0 0.08 1.02 0.20 97 1015.2
20260504130705 80 77 8.0 10.0 0.00 0.94 0.12 78 1015.2
20260504130205 78 83 10.0 14.0 0.00 0.94 0.12 82 1015.2
20260504110704 72 32 4.0 8.0 0.00 0.94 0.12 100 1014.2
20260504110205 72 45 3.0 9.0 0.00 0.94 0.12 100 1014.2
20260504100204 71 354 4.0 8.0 0.08 0.94 0.12 100 1014.2
20260504081705 72 58 3.0 6.0 0.00 0.87 0.04 100 1013.2
20260504081204 72 42 3.0 6.0 0.00 0.87 0.04 100 1013.2
20260504080704 72 64 3.0 6.0 0.00 0.87 0.04 100 1013.2
20260504080204 72 70 4.0 7.0 0.00 0.87 0.04 100 1013.2